| time (UTC) | temp F | wind direction | speed MPH | gust MPH | rain 1hr in | rain 24hr in | rain mn in | humidity % | barometer mb |
| 20260905183039 | 82 | 0.0 | 0.0 | 0.00 | 0.00 | 0.00 | 66 | 1010.7 | |
| 20260905181537 | 81 | 0.0 | 0.0 | 0.00 | 0.00 | 0.00 | 68 | 1011.0 | |
| 20260905180036 | 80 | 0.0 | 0.0 | 0.00 | 0.00 | 0.00 | 72 | 1011.3 | |
| 20260905174537 | 79 | 0.0 | 0.0 | 0.00 | 0.00 | 0.00 | 69 | 1011.2 | |
| 20260905173053 | 80 | 0.0 | 0.0 | 0.00 | 0.00 | 0.00 | 69 | 1011.3 | |
| 20260905171539 | 80 | 0.0 | 0.0 | 0.00 | 0.00 | 0.00 | 68 | 1011.1 | |
| 20260905170033 | 81 | 0.0 | 0.0 | 0.00 | 0.00 | 0.00 | 67 | 1011.2 | |
| 20260905164533 | 81 | 0.0 | 0.0 | 0.00 | 0.00 | 0.00 | 65 | 1011.6 | |
| 20260905163032 | 81 | 0.0 | 0.0 | 0.00 | 0.00 | 0.00 | 67 | 1011.7 | |
| 20260905161532 | 79 | 0.0 | 0.0 | 0.00 | 0.00 | 0.00 | 68 | 1011.8 | |
| 20260905160034 | 76 | 0.0 | 0.0 | 0.00 | 0.00 | 0.00 | 74 | 1012.3 | |
| 20260905154534 | 76 | 0.0 | 0.0 | 0.00 | 0.00 | 0.00 | 73 | 1012.3 | |
| 20260905153030 | 76 | 0.0 | 0.0 | 0.00 | 0.00 | 0.00 | 71 | 1012.7 | |
| 20260905151530 | 77 | 0.0 | 0.0 | 0.00 | 0.00 | 0.00 | 69 | 1012.5 | |
| 20260905150029 | 78 | 0.0 | 0.0 | 0.00 | 0.00 | 0.00 | 69 | 1012.8 | |
| 20260905144527 | 81 | 0.0 | 0.0 | 0.00 | 0.00 | 0.00 | 69 | 1012.6 | |
| 20260905143032 | 82 | 0.0 | 0.0 | 0.00 | 0.00 | 0.00 | 70 | 1011.7 | |
| 20260905141528 | 83 | 0.0 | 0.0 | 0.00 | 0.00 | 0.00 | 67 | 1011.8 | |
| 20260905140021 | 85 | 0.0 | 0.0 | 0.00 | 0.00 | 0.00 | 67 | 1011.9 | |
| 20260905134517 | 83 | 0.0 | 0.0 | 0.00 | 0.00 | 0.00 | 70 | 1011.7 | |
| 20260905133013 | 81 | 0.0 | 0.0 | 0.00 | 0.00 | 0.00 | 75 | 1011.8 | |
| 20260905131514 | 79 | 0.0 | 0.0 | 0.00 | 0.00 | 0.00 | 76 | 1011.7 | |
| 20260905130006 | 77 | 0.0 | 0.0 | 0.00 | 0.00 | 0.00 | 79 | 1011.7 | |
| 20260905124502 | 75 | 0.0 | 0.0 | 0.00 | 0.00 | 0.00 | 84 | 1011.8 | |
| 20260905123057 | 72 | 0.0 | 0.0 | 0.00 | 0.00 | 0.00 | 87 | 1011.8 | |
| 20260905121556 | 70 | 0.0 | 0.0 | 0.00 | 0.00 | 0.00 | 92 | 1011.8 | |
| 20260905120052 | 68 | 0.0 | 0.0 | 0.00 | 0.00 | 0.00 | 93 | 1011.6 | |
| 20260905114552 | 68 | 0.0 | 0.0 | 0.00 | 0.00 | 0.00 | 92 | 1011.5 | |
| 20260905113052 | 68 | 0.0 | 0.0 | 0.00 | 0.00 | 0.00 | 92 | 1011.6 | |
| 20260905111551 | 68 | 0.0 | 0.0 | 0.00 | 0.00 | 0.00 | 91 | 1011.6 | |
| 20260905110106 | 69 | 0.0 | 0.0 | 0.00 | 0.00 | 0.00 | 90 | 1011.5 | |
| 20260905104549 | 69 | 0.0 | 0.0 | 0.00 | 0.00 | 0.00 | 90 | 1011.5 | |
| 20260905103052 | 69 | 0.0 | 0.0 | 0.00 | 0.00 | 0.00 | 90 | 1011.3 | |
| 20260905101602 | 69 | 0.0 | 0.0 | 0.00 | 0.00 | 0.00 | 91 | 1011.3 | |
| 20260905100047 | 69 | 0.0 | 0.0 | 0.00 | 0.00 | 0.00 | 91 | 1011.3 | |
| 20260905094547 | 69 | 0.0 | 0.0 | 0.00 | 0.00 | 0.00 | 90 | 1011.2 | |
| 20260905093046 | 70 | 0.0 | 0.0 | 0.00 | 0.00 | 0.00 | 89 | 1011.3 | |
| 20260905091600 | 70 | 0.0 | 0.0 | 0.00 | 0.00 | 0.00 | 89 | 1011.2 | |
| 20260905090045 | 70 | 0.0 | 0.0 | 0.00 | 0.00 | 0.00 | 89 | 1011.3 | |
| 20260905084544 | 70 | 0.0 | 0.0 | 0.00 | 0.00 | 0.00 | 89 | 1011.2 | |
| 20260905083043 | 70 | 0.0 | 0.0 | 0.00 | 0.00 | 0.00 | 90 | 1011.3 | |
| 20260905081542 | 69 | 0.0 | 0.0 | 0.00 | 0.00 | 0.00 | 91 | 1011.4 | |
| 20260905080040 | 69 | 0.0 | 0.0 | 0.00 | 0.00 | 0.00 | 92 | 1011.6 | |
| 20260905074540 | 69 | 0.0 | 0.0 | 0.00 | 0.00 | 0.00 | 92 | 1011.7 | |
| 20260905073037 | 69 | 0.0 | 0.0 | 0.00 | 0.00 | 0.00 | 92 | 1011.8 | |
| 20260905071536 | 69 | 0.0 | 0.0 | 0.00 | 0.00 | 0.00 | 91 | 1012.0 | |
| 20260905070035 | 70 | 0.0 | 0.0 | 0.00 | 0.00 | 0.00 | 91 | 1012.1 | |
| 20260905064530 | 70 | 0.0 | 0.0 | 0.00 | 0.00 | 0.00 | 90 | 1012.4 | |
| 20260905063028 | 70 | 0.0 | 0.0 | 0.00 | 0.00 | 0.00 | 90 | 1012.6 | |
| 20260905061527 | 70 | 0.0 | 0.0 | 0.00 | 0.00 | 0.00 | 90 | 1012.7 | |
| 20260905060025 | 70 | 0.0 | 0.0 | 0.00 | 0.00 | 0.00 | 90 | 1012.9 | |
| 20260905054531 | 70 | 0.0 | 0.0 | 0.00 | 0.00 | 0.00 | 89 | 1013.1 | |
| 20260905053020 | 71 | 0.0 | 0.0 | 0.00 | 0.00 | 0.00 | 89 | 1013.2 | |
| 20260905051519 | 71 | 0.0 | 0.0 | 0.00 | 0.00 | 0.00 | 89 | 1013.4 | |
| 20260905050017 | 71 | 0.0 | 0.0 | 0.00 | 0.00 | 0.00 | 88 | 1013.7 | |
| 20260905044515 | 71 | 0.0 | 0.0 | 0.00 | 0.00 | 0.00 | 88 | 1013.9 | |
| 20260905043014 | 71 | 0.0 | 0.0 | 0.00 | 0.00 | 0.00 | 88 | 1014.0 | |
| 20260905041513 | 72 | 0.0 | 0.0 | 0.00 | 0.00 | 0.00 | 88 | 1013.7 | |
| 20260905040013 | 72 | 0.0 | 0.0 | 0.00 | 0.00 | 0.00 | 87 | 1013.7 | |
| 20260905034519 | 72 | 0.0 | 0.0 | 0.00 | 0.00 | 0.00 | 87 | 1013.6 | |
| 20260905033008 | 72 | 0.0 | 0.0 | 0.00 | 0.00 | 0.00 | 86 | 1013.7 | |
| 20260905031508 | 73 | 0.0 | 0.0 | 0.00 | 0.00 | 0.00 | 86 | 1014.0 | |
| 20260905030008 | 73 | 0.0 | 0.0 | 0.00 | 0.00 | 0.00 | 85 | 1014.0 | |
| 20260905024509 | 74 | 0.0 | 0.0 | 0.00 | 0.00 | 0.00 | 84 | 1013.9 | |
| 20260905023010 | 74 | 0.0 | 0.0 | 0.00 | 0.00 | 0.00 | 83 | 1013.6 | |
| 20260905021506 | 75 | 0.0 | 0.0 | 0.00 | 0.00 | 0.00 | 81 | 1013.2 | |
| 20260905020007 | 75 | 0.0 | 0.0 | 0.00 | 0.00 | 0.00 | 80 | 1012.4 | |
| 20260905014505 | 76 | 0.0 | 0.0 | 0.00 | 0.00 | 0.00 | 79 | 1012.1 | |
| 20260905013004 | 77 | 0.0 | 0.0 | 0.00 | 0.00 | 0.00 | 77 | 1012.1 | |
| 20260905011504 | 78 | 0.0 | 0.0 | 0.00 | 0.00 | 0.00 | 76 | 1011.9 | |
| 20260905010002 | 78 | 0.0 | 0.0 | 0.00 | 0.00 | 0.00 | 74 | 1012.1 | |
| 20260905004502 | 79 | 0.0 | 0.0 | 0.00 | 0.00 | 0.00 | 72 | 1012.3 | |
| 20260905003003 | 80 | 0.0 | 0.0 | 0.00 | 0.00 | 0.00 | 69 | 1012.9 | |
| 20260905001500 | 80 | 0.0 | 0.0 | 0.00 | 0.00 | 0.00 | 67 | 1012.7 | |
| 20260905000100 | 81 | 0.0 | 0.0 | 0.00 | 0.00 | 0.00 | 66 | 1012.5 | |
| 20260904234559 | 82 | 0.0 | 0.0 | 0.00 | 0.00 | 0.00 | 65 | 1012.4 | |
| 20260904233059 | 83 | 0.0 | 0.0 | 0.00 | 0.00 | 0.00 | 66 | 1012.4 | |
| 20260904231558 | 84 | 0.0 | 0.0 | 0.00 | 0.00 | 0.00 | 66 | 1012.5 | |
| 20260904230127 | 84 | 0.0 | 0.0 | 0.00 | 0.00 | 0.00 | 65 | 1012.6 | |
| 20260904224601 | 85 | 0.0 | 0.0 | 0.00 | 0.00 | 0.00 | 64 | 1013.1 | |
| 20260904223103 | 85 | 0.0 | 0.0 | 0.00 | 0.00 | 0.00 | 64 | 1013.3 | |
| 20260904221557 | 85 | 0.0 | 0.0 | 0.00 | 0.00 | 0.00 | 62 | 1013.2 | |
| 20260904220056 | 86 | 0.0 | 0.0 | 0.00 | 0.00 | 0.00 | 61 | 1013.3 | |
| 20260904214555 | 87 | 0.0 | 0.0 | 0.00 | 0.00 | 0.00 | 59 | 1013.3 | |
| 20260904213055 | 88 | 0.0 | 0.0 | 0.00 | 0.00 | 0.00 | 56 | 1013.0 | |
| 20260904211556 | 89 | 0.0 | 0.0 | 0.00 | 0.00 | 0.00 | 54 | 1013.2 | |
| 20260904210053 | 89 | 0.0 | 0.0 | 0.00 | 0.00 | 0.00 | 53 | 1013.0 | |
| 20260904204552 | 89 | 0.0 | 0.0 | 0.00 | 0.00 | 0.00 | 53 | 1012.9 | |
| 20260904203050 | 89 | 0.0 | 0.0 | 0.00 | 0.00 | 0.00 | 53 | 1012.5 | |
| 20260904201550 | 89 | 0.0 | 0.0 | 0.00 | 0.00 | 0.00 | 54 | 1012.4 | |
| 20260904200048 | 89 | 0.0 | 0.0 | 0.00 | 0.00 | 0.00 | 53 | 1012.3 | |
| 20260904194546 | 89 | 0.0 | 0.0 | 0.00 | 0.00 | 0.00 | 56 | 1012.6 | |
| 20260904193043 | 90 | 0.0 | 0.0 | 0.00 | 0.00 | 0.00 | 55 | 1013.1 | |
| 20260904191542 | 90 | 0.0 | 0.0 | 0.00 | 0.00 | 0.00 | 51 | 1013.4 | |
| 20260904190041 | 91 | 0.0 | 0.0 | 0.00 | 0.00 | 0.00 | 49 | 1013.3 | |
| 20260904184540 | 93 | 0.0 | 0.0 | 0.00 | 0.00 | 0.00 | 46 | 1013.4 |